Regional Weather Roundup
Issued by NWS Jackson, KY

Home | Current Version | Previous Version | Graphics & Text | Print | Product List | Glossary On
Versions: 1 2 3 4 5 6 7 8 9 10 11 12 13 14 15 16 17 18 19 20 21 22 23 24 25 26 27 28 29 30 31 32 33 34 35 36 37 38 39 40 41 42 43 44 45 46 47 48 49 50
000
ASUS43 KJKL 020419
RWRJKL

EAST KENTUCKY HOURLY WEATHER ROUNDUP
NATIONAL WEATHER SERVICE JACKSON KY
1200 AM EDT SAT AUG 02 2014

NOTE: "FAIR" INDICATES FEW OR NO CLOUDS BELOW 12,000 FEET WITH
NO SIGNIFICANT WEATHER AND/OR OBSTRUCTIONS TO VISIBILITY.

* THESE REPORTS ARE NOT UNDER NWS QUALITY CONTROL AND MAY NOT
  REPORT WEATHER SUCH AS PRECIPITATION AND FOG.

KYZ079-080-083-085-087-088-110-112-115-119-120-020500
...EASTERN KENTUCKY...

CITY           SKY/WX    TMP DP  RH WIND       PRES   REMARKS
JACKSON        MOCLDY    67  65  93 E3        30.10R
LONDON         CLOUDY    70  63  78 CALM      30.09F
SOMERSET*      CLEAR     68  66  94 CALM      30.08S
MONTICELLO*    CLEAR     64  64 100 CALM      30.09R FOG
WILLIAMSBURG*    N/A    N/A N/A N/A CALM        N/A
MIDDLESBORO*   CLOUDY    69  65  86 CALM      30.10S
HARLAN APT*    CLEAR     68  63  83 MISG      30.12R
BLACK MTN*       N/A     59  55  88 S2          N/A
PIKEVILLE APT* CLEAR     70  61  73 SE6       30.12R
BIG SANDY*     PTCLDY    69  62  77 SE5       30.11R
MOREHEAD APT*  CLOUDY    68  64  88 CALM      30.10S
ASHLAND*         N/A    N/A N/A N/A CALM        N/A
$$

KYZ035-036-041-042-044-050-067-078-099-020500
...CENTRAL KENTUCKY...

CITY           SKY/WX    TMP DP  RH WIND       PRES   REMARKS
MT STERLING*   CLOUDY    68  64  88 CALM      30.10R
FLEMING/MASON* CLOUDY    70  63  78 CALM      30.09S
DANVILLE*      CLEAR     64  63  94 CALM      30.08S
RICHMOND*      CLEAR     66  63  88 CALM      30.07S
LEXINGTON      CLEAR     71  61  70 CALM      30.08S
FRANKFORT      PTCLDY    66  61  84 CALM      30.06S
$$

KYZ091>093-OHZ055-061-077-WVZ005-015-034-035-042-020500
...SOUTHERN OHIO/WEST VIRGINIA...

CITY           SKY/WX    TMP DP  RH WIND       PRES   REMARKS
COVINGTON      PTCLDY    72  61  68 N7        30.08S
COLUMBUS       MOCLDY    73  63  70 CALM      30.08F
DAYTON         MOCLDY    70  63  78 CALM      30.10S
WILMINGTON     PTCLDY    66  61  84 NE5       30.09S
HUNTINGTON     MOCLDY    68  68 100 E5        30.08R FOG
CHARLESTON     PTCLDY    67  64  90 NE3       30.11R
PINEVILLE*     CLEAR     62  61  98 MISG      30.21S
BECKLEY        CLOUDY    62  53  72 CALM      30.19R
BLUEFIELD      PTCLDY    62  55  77 VRB7      30.21R
$$

VAZ002-007-008-TNZ017-027-036-066-071-020500
...SOUTHWEST VIRGINIA/EAST TENNESSEE...

CITY           SKY/WX    TMP DP  RH WIND       PRES   REMARKS
WISE*          CLEAR     63  54  72 CALM      30.18S
JONESVILLE*      N/A     64  63  94 CALM      30.14R
ABINGDON*      CLEAR     64  58  81 E7        30.16F
BRISTOL        PTCLDY    64  58  80 CALM      30.13S
KNOXVILLE      CLOUDY    75  66  73 W6        30.06R
OAK RIDGE      PTCLDY    73  68  84 CALM      30.08R
CROSSVILLE     CLOUDY    69  65  86 CALM      30.12R
NASHVILLE      CLOUDY    77  66  68 CALM      30.05S
$$

...KEY TO REMARKS...
VSB - VISIBILITY IN MILES
WCI - WIND CHILL INDEX
HX  - HEAT INDEX

$$


USA.gov is the U.S. government's official web portal to all federal, state and local government web resources and services.